Location: Unspecified
(0.0000°N, 0.0000°E)
Time: 03:35:37
(UTC+00:00)

Vanguard 3 - Pass Details

Date: 17 December 2017
Orbit: 508 x 3264 km, 33.4° (Epoch: 23 January)

Event Time Altitude Azimuth Distance (km) Brightness Sun altitude
Rises 09:38:08 0° 265° (W) 5,645 11.2 49.2°
Reaches altitude 10° 09:44:16 10° 283° (WNW) 3,993 10.4 50.4°
Maximum altitude 09:49:52 16° 317° (NW) 2,888 9.8 51.4°
Drops below altitude 10° 09:54:06 10° 354° (N) 2,847 9.8 52.3°
Sets 09:57:24 0° 17° (NNE) 3,413 10.2 52.9°
